Location: ??????
(36.0418°N, 43.6351°E)
Time: 22:58:04
(UTC+00:00)

GPS 2-04 Rocket1 - Pass Details

Date: 07 March 2021
Orbit: 416 x 541 km, 35.6° (Epoch: 19 April)

Event Time Altitude Azimuth Distance (km) Brightness Sun altitude
Exits shadow 02:11:32 36° 260° (W) 758 3.0 -16.2°
Maximum altitude 02:12:57 83° 175° (S) 485 2.5 -15.9°
Drops below altitude 10° 02:16:49 10° 88° (E) 1,687 6.7 -15.1°
Sets 02:19:05 0° 88° (E) 2,594 8.2 -14.7°
